Zurück zum Katalog

STARLINK-33888

AktivKommunikationVLEO
NORAD 63860·PAYLOAD·🇺🇸 United States

Gestartet May 7, 2025 von Cape Canaveral Space Force Station

Loading…

Nächste Überflüge (nächste 24 Stunden)

TLE

AktuellSource: CelesTrak SupGP

Epoche: Sep 14, 2026, 20:50 UTC

1 63860C 25093AA  26257.86854167 -.00027291  00000+0 -98867-3 0  2579
2 63860  43.0027  89.5763 0001818 273.2040  89.9997 15.27584626    13

Verfolge STARLINK-33888 in Echtzeit mit AllMySat

Download on the App Store